User: anonymous   Login
Location: Baili�vre
(50.0696°N, 4.2409°E)
Time: 13:53:59
(UTC+00:00)
Language:

Sich 1 Rocket - Orbit

View from above orbital plane
View from above orbital plane
View from above satellite
View from above satellite

Ground track
Ground track

The orbit data is extracted from the following two-line orbital elements,

1 23659U 95046C   20294.43314729 +.00000085 +00000-0 +84513-5 0  9998
2 23659 082.5295 252.2043 0025145 195.6950 286.6814 14.78348624354978
Epoch (UTC): 20 October 2020 10:23:43
Eccentricity: 0.0025145
inclination: 82.5295°
perigee height: 617 km
apogee height: 652 km
right ascension of ascending node: 252.2043°
argument of perigee: 195.6950°
revolutions per day: 14.78348624
mean anomaly at epoch: 286.6814°
orbit number at epoch: 35497

The dashed part of the orbit path shows where the satellite is in the earth's shadow,  

DLR